FW5619 Merrick NY US current weather conditions

sailwx.info

Wind from 107 at 6 knots gusting 15

Air temperature 15.0° C
Dewpoint 14.2° C

Last reported at 2019-Oct-22 20:10 UTC.
Time now 2019-Oct-22 21:07 UTC

Location: N 40°39' W 073°33'.
View on Google Maps.

See reports from other nearby stations

  
Tides and Currents Weather Stations Pressure Air Temp Water Temp Dewpoint Dewpoint Depression Visibility Wind Speed Wind Dir Waves Ship Positions
date/time (UTC)wind fromknots sea level pressurealtimeterstation pressurevisibilityair tempwater tempwave heightnotes
2019-Oct-22 20:10 107 6 gusting 15 15.0
2019-Oct-22 20:05 096 6 gusting 16 15.0
2019-Oct-22 20:00 107 6 gusting 16 15.0
2019-Oct-22 19:55 053 6 gusting 15 15.0
2019-Oct-22 19:50 101 6 gusting 15 15.0
2019-Oct-22 19:45 084 6 gusting 11 14.4
2019-Oct-22 19:40 099 6 gusting 11 14.4
2019-Oct-22 19:35 088 5 gusting 13 14.4
2019-Oct-22 19:30 078 6 gusting 14 14.4
2019-Oct-22 19:25 123 6 gusting 14 14.4
2019-Oct-22 19:20 049 4 gusting 13 14.4
2019-Oct-22 19:15 076 5 gusting 14 14.4
2019-Oct-22 19:04 047 7 gusting 15 15.0
2019-Oct-22 18:55 083 4 gusting 13 15.0
2019-Oct-22 18:51 075 6 gusting 13 15.0
2019-Oct-22 18:40 138 4 gusting 12 15.0
2019-Oct-22 18:35 080 6 gusting 12 15.0
2019-Oct-22 18:32 116 4 gusting 12 15.0
2019-Oct-22 18:26 077 5 gusting 13 15.0
2019-Oct-22 18:20 107 5 gusting 13 14.4
2019-Oct-22 18:19 065 4 gusting 11 14.4
2019-Oct-22 18:10 037 5 gusting 11 14.4
2019-Oct-22 18:05 087 6 gusting 11 14.4
2019-Oct-22 18:01 061 4 gusting 12 14.4
2019-Oct-22 17:55 037 5 gusting 12 14.4
2019-Oct-22 17:50 077 4 gusting 10 14.4
2019-Oct-22 17:47 097 5 gusting 10 14.4
2019-Oct-22 17:40 077 6 gusting 12 14.4
2019-Oct-22 17:35 078 5 gusting 12 14.4
2019-Oct-22 17:32 074 6 gusting 11 14.4
2019-Oct-22 17:25 103 5 gusting 10 14.4
2019-Oct-22 17:20 096 6 gusting 13 14.4
2019-Oct-22 17:16 066 3 gusting 13 14.4
2019-Oct-22 17:10 076 5 gusting 11 14.4
2019-Oct-22 17:05 042 4 gusting 11 14.4
2019-Oct-22 17:02 059 3 gusting 9 14.4
2019-Oct-22 16:55 090 3 gusting 9 14.4
2019-Oct-22 16:50 050 3 gusting 11 14.4
2019-Oct-22 16:47 105 5 gusting 13 14.4
2019-Oct-22 16:40 051 5 gusting 13 14.4
2019-Oct-22 16:35 057 4 gusting 8 14.4
2019-Oct-22 16:31 017 3 gusting 10 14.4
2019-Oct-22 16:25 111 3 gusting 7 14.4
2019-Oct-22 16:20 106 1 gusting 7 14.4
2019-Oct-22 16:16 055 3 gusting 8 14.4
2019-Oct-22 16:10 088 2 gusting 7 14.4
2019-Oct-22 16:05 055 3 gusting 7 14.4
2019-Oct-22 16:01 081 4 gusting 6 14.4
2019-Oct-22 15:55 060 2 gusting 6 14.4
2019-Oct-22 15:50 067 3 gusting 6 13.9
2019-Oct-22 15:46 069 2 gusting 5 13.9
2019-Oct-22 15:40 071 2 gusting 5 13.9
2019-Oct-22 15:35 069 2 gusting 5 13.9
2019-Oct-22 15:31 094 0 gusting 4 13.9
2019-Oct-22 15:25 058 1 gusting 4 13.9
2019-Oct-22 15:20 038 0 gusting 4 13.9
2019-Oct-22 15:15 052 2 gusting 4 13.9
2019-Oct-22 15:10 059 1 gusting 4 13.9
2019-Oct-22 15:05 076 0 gusting 6 13.9
2019-Oct-22 15:01 069 3 gusting 9 13.9
2019-Oct-22 14:55 074 4 gusting 9 13.9
2019-Oct-22 14:50 082 3 gusting 6 13.9
2019-Oct-22 14:45 049 2 gusting 6 13.9
2019-Oct-22 14:40 055 4 gusting 6 13.9
2019-Oct-22 14:35 054 1 gusting 6 13.9
2019-Oct-22 14:31 048 1 gusting 7 13.9
2019-Oct-22 14:25 086 4 gusting 7 13.9
2019-Oct-22 14:20 055 2 gusting 9 13.9
2019-Oct-22 14:15 057 4 gusting 9 13.9
2019-Oct-22 14:10 065 2 gusting 10 13.9
2019-Oct-22 14:05 061 3 gusting 10 13.9
2019-Oct-22 14:00 046 5 gusting 8 13.9
2019-Oct-22 13:55 076 2 gusting 9 13.9
2019-Oct-22 13:50 052 2 gusting 8 13.9
2019-Oct-22 13:45 063 2 gusting 9 13.3
2019-Oct-22 13:40 054 2 gusting 9 13.3
2019-Oct-22 13:35 042 3 gusting 9 13.3
2019-Oct-22 13:31 027 5 gusting 10 13.3
2019-Oct-22 13:25 055 4 gusting 10 13.3
2019-Oct-22 13:20 069 4 gusting 10 13.3
2019-Oct-22 13:16 085 4 gusting 10 13.3
2019-Oct-22 13:10 092 5 gusting 11 13.3
2019-Oct-22 13:05 063 5 gusting 9 13.3
2019-Oct-22 12:55 068 4 gusting 10 13.3
2019-Oct-22 12:50 095 4 gusting 12 13.3
2019-Oct-22 12:40 070 4 gusting 8 13.3
2019-Oct-22 12:35 055 2 gusting 6 13.3
2019-Oct-22 12:30 046 3 gusting 6 13.3
2019-Oct-22 12:25 074 1 gusting 6 12.8
2019-Oct-22 12:20 053 2 gusting 5 12.8
2019-Oct-22 12:15 075 1 gusting 6 12.8
2019-Oct-22 12:10 038 3 gusting 6 12.8
2019-Oct-22 12:00 078 1 gusting 3 12.8
2019-Oct-22 11:55 059 0 gusting 3 12.8
2019-Oct-22 11:50 030 12.8
2019-Oct-22 11:45 051 12.8
2019-Oct-22 11:40 051 12.2
2019-Oct-22 11:35 051 12.2
2019-Oct-22 11:25 055 12.2
2019-Oct-22 11:20 055 1 gusting 4 12.2
2019-Oct-22 11:10 069 0 gusting 6 12.2
2019-Oct-22 11:05 072 1 gusting 5 12.2
2019-Oct-22 10:55 111 2 gusting 6 12.2
2019-Oct-22 10:50 070 2 gusting 6 12.2
2019-Oct-22 10:45 073 1 gusting 6 12.2
2019-Oct-22 10:40 068 0 gusting 6 12.2
2019-Oct-22 10:35 068 2 gusting 6 12.2
2019-Oct-22 10:30 053 4 gusting 6 12.2
2019-Oct-22 10:25 069 0 gusting 5 12.2
2019-Oct-22 10:20 072 2 gusting 7 12.2
2019-Oct-22 10:15 005 0 gusting 10 12.2
2019-Oct-22 10:10 049 4 gusting 7 12.2
2019-Oct-22 10:05 048 2 gusting 6 12.2
2019-Oct-22 10:00 067 1 gusting 6 12.2
2019-Oct-22 09:55 061 0 gusting 6 12.2
2019-Oct-22 09:50 038 1 gusting 6 12.2
2019-Oct-22 09:45 063 0 gusting 5 12.2
2019-Oct-22 09:40 045 1 gusting 5 12.2
2019-Oct-22 09:35 057 1 gusting 5 12.2
2019-Oct-22 09:30 046 2 gusting 5 12.2
2019-Oct-22 09:25 055 2 gusting 5 12.2
2019-Oct-22 09:20 066 1 gusting 3 12.2
2019-Oct-22 09:15 055 0 gusting 3 12.2
2019-Oct-22 09:10 058 0 gusting 3 12.2
2019-Oct-22 09:05 042 12.2
2019-Oct-22 09:00 051 12.2
2019-Oct-22 08:55 042 12.2
2019-Oct-22 08:50 040 12.2
2019-Oct-22 08:45 013 11.7
2019-Oct-22 08:40 338 11.7
2019-Oct-22 08:35 338 11.7
2019-Oct-22 08:26 055 11.7
2019-Oct-22 08:21 043 11.7
2019-Oct-22 08:16 036 1 gusting 5 11.7
2019-Oct-22 08:11 046 1 gusting 5 11.7
2019-Oct-22 08:05 065 1 gusting 5 11.7
2019-Oct-22 08:02 080 2 gusting 5 12.2
2019-Oct-22 07:56 059 2 gusting 6 12.2
2019-Oct-22 07:51 059 1 gusting 5 12.2
2019-Oct-22 07:48 047 2 gusting 5 12.2
2019-Oct-22 07:40 050 0 gusting 3 12.2
2019-Oct-22 07:36 027 0 gusting 3 12.2
2019-Oct-22 07:32 044 12.2
2019-Oct-22 07:26 065 0 gusting 5 12.2
2019-Oct-22 07:21 060 0 gusting 4 12.2
2019-Oct-22 07:16 045 1 gusting 5 12.2
2019-Oct-22 07:11 058 2 gusting 5 12.2
2019-Oct-22 07:05 038 2 gusting 6 12.2
2019-Oct-22 07:01 042 2 gusting 6 12.2
2019-Oct-22 06:55 049 2 gusting 4 12.2
2019-Oct-22 06:50 057 0 gusting 3 12.2
2019-Oct-22 06:46 360 12.2
2019-Oct-22 06:40 360 12.2
2019-Oct-22 06:35 042 12.2
2019-Oct-22 06:31 056 0 gusting 6 11.7
2019-Oct-22 06:25 050 1 gusting 6 11.7
2019-Oct-22 06:20 056 11.7
2019-Oct-22 06:10 044 1 gusting 5 11.7
2019-Oct-22 06:05 044 0 gusting 5 11.7
2019-Oct-22 06:01 054 2 gusting 5 11.7
2019-Oct-22 05:55 078 0 gusting 4 11.7
2019-Oct-22 05:50 056 1 gusting 4 11.7
2019-Oct-22 05:46 061 0 gusting 2 11.7
2019-Oct-22 05:40 057 0 gusting 2 11.7
2019-Oct-22 05:35 059 0 gusting 2 11.7
2019-Oct-22 05:31 019 11.7
2019-Oct-22 05:25 019 11.1
2019-Oct-22 05:20 035 11.7
2019-Oct-22 05:16 035 11.7
2019-Oct-22 05:10 044 11.7
2019-Oct-22 05:05 044 0 gusting 2 11.7
2019-Oct-22 05:01 046 11.7
2019-Oct-22 04:55 046 11.7
2019-Oct-22 04:50 046 12.2
2019-Oct-22 04:46 046 12.2
2019-Oct-22 04:40 078 12.2
2019-Oct-22 04:35 062 1 gusting 5 12.8
2019-Oct-22 04:32 064 1 gusting 6 12.8
2019-Oct-22 04:25 080 2 gusting 9 12.8
2019-Oct-22 04:20 035 5 gusting 9 12.8
2019-Oct-22 04:16 078 4 gusting 7 12.8
2019-Oct-22 04:10 061 2 gusting 5 12.8
2019-Oct-22 04:05 034 2 gusting 6 12.8
2019-Oct-22 04:01 062 2 gusting 5 12.2
2019-Oct-22 03:55 058 1 gusting 5 12.2
2019-Oct-22 03:50 032 1 gusting 4 12.2
2019-Oct-22 03:46 027 0 gusting 3 11.7
2019-Oct-22 03:40 054 0 gusting 2 11.7
2019-Oct-22 03:35 063 0 gusting 2 11.1
2019-Oct-22 03:31 115 11.1
2019-Oct-22 03:25 115 11.1
2019-Oct-22 03:20 115 11.1
2019-Oct-22 03:16 115 11.1
2019-Oct-22 03:10 115 11.1
2019-Oct-22 03:05 115 11.1
2019-Oct-22 03:01 115 11.1
2019-Oct-22 02:55 115 11.1
2019-Oct-22 02:50 115 11.1
2019-Oct-22 02:45 115 11.1
2019-Oct-22 02:40 115 11.1
2019-Oct-22 02:35 115 11.1
2019-Oct-22 02:30 115 11.1
2019-Oct-22 02:25 115 11.1
2019-Oct-22 02:20 115 11.1
2019-Oct-22 02:16 115 11.1
2019-Oct-22 02:10 115 11.1
2019-Oct-22 02:05 115 11.7
2019-Oct-22 02:00 115 11.7
2019-Oct-22 01:55 115 11.7
2019-Oct-22 01:50 115 11.7
2019-Oct-22 01:45 115 12.2
2019-Oct-22 01:40 115 12.2
2019-Oct-22 01:35 115 12.2
2019-Oct-22 01:30 115 12.2
2019-Oct-22 01:25 115 12.2
2019-Oct-22 01:20 115 12.2
2019-Oct-22 01:15 115 12.2
2019-Oct-22 01:10 115 0 gusting 1 12.2
2019-Oct-22 01:05 115 12.2
2019-Oct-22 01:00 115 12.8
2019-Oct-22 00:55 115 12.8
2019-Oct-22 00:50 115 12.8
2019-Oct-22 00:45 115 0 gusting 1 12.2
2019-Oct-22 00:40 115 12.8
2019-Oct-22 00:35 115 12.2
2019-Oct-22 00:31 115 12.2
2019-Oct-22 00:25 115 12.2
2019-Oct-22 00:20 115 12.8
2019-Oct-22 00:15 115 12.8
2019-Oct-22 00:10 115 12.8
2019-Oct-22 00:05 115 12.8
2019-Oct-21 23:55 115 12.8
2019-Oct-21 23:50 115 12.8
2019-Oct-21 23:40 115 13.3
2019-Oct-21 23:35 115 13.3
2019-Oct-21 23:25 115 13.3
2019-Oct-21 23:20 115 13.9
2019-Oct-21 23:15 115 13.9
2019-Oct-21 23:10 115 13.9
2019-Oct-21 23:05 115 13.9
2019-Oct-21 23:00 115 13.9
2019-Oct-21 22:55 115 14.4
2019-Oct-21 22:50 115 14.4
2019-Oct-21 22:40 115 14.4
2019-Oct-21 22:35 115 15.0
2019-Oct-21 22:25 115 15.0
2019-Oct-21 22:20 115 15.0
2019-Oct-21 22:15 115 15.6
2019-Oct-21 22:10 115 15.6
2019-Oct-21 22:05 115 15.6
2019-Oct-21 22:00 115 16.1
2019-Oct-21 21:55 115 16.1
2019-Oct-21 21:50 115 1 gusting 2 16.1
2019-Oct-21 21:45 115 0 gusting 3 16.1
2019-Oct-21 21:40 085 0 gusting 3 16.1
2019-Oct-21 21:35 117 0 gusting 5 16.1
2019-Oct-21 21:25 127 1 gusting 6 16.1
2019-Oct-21 21:20 113 1 gusting 5 16.1
2019-Oct-21 21:10 136 2 gusting 4 16.7
2019-Oct-21 21:05 139 2 gusting 4 16.7
2019-Oct-21 20:55 153 1 gusting 4 16.7
2019-Oct-21 20:50 117 1 gusting 6 16.7
2019-Oct-21 20:45 139 1 gusting 6 16.7
2019-Oct-21 20:40 142 2 gusting 5 16.1
2019-Oct-21 20:35 146 3 gusting 6 16.7
2019-Oct-21 20:30 151 2 gusting 6 17.2
2019-Oct-21 20:25 120 2 gusting 8 17.2
2019-Oct-21 20:20 100 3 gusting 8 17.2
2019-Oct-21 20:15 109 3 gusting 7 17.2
2019-Oct-21 20:10 121 4 gusting 7 17.2
2019-Oct-21 20:05 117 5 gusting 7 17.2
2019-Oct-21 20:00 095 3 gusting 9 17.2
2019-Oct-21 19:55 087 4 gusting 9 17.2
2019-Oct-21 19:50 147 5 gusting 8 17.2
2019-Oct-21 19:45 138 4 gusting 8 17.2
2019-Oct-21 19:40 143 3 gusting 6 17.2
2019-Oct-21 19:31 132 1 gusting 6 17.8
2019-Oct-21 19:26 085 2 gusting 6 18.3
2019-Oct-21 19:21 066 1 gusting 8 18.3
2019-Oct-21 19:10 073 2 gusting 7 18.3
2019-Oct-21 19:06 057 2 gusting 8 18.9
2019-Oct-21 19:02 058 3 gusting 11 18.3
2019-Oct-21 18:56 094 5 gusting 12 18.3
2019-Oct-21 18:50 061 6 gusting 12 18.3
2019-Oct-21 18:47 053 6 gusting 11 18.9
2019-Oct-21 18:40 049 0 gusting 11 18.9
2019-Oct-21 18:36 077 1 gusting 11 18.9
2019-Oct-21 18:31 052 4 gusting 9 18.3
2019-Oct-21 18:25 061 4 gusting 8 18.3
2019-Oct-21 18:20 075 3 gusting 13 18.3
2019-Oct-21 18:16 074 5 gusting 13 18.3
2019-Oct-21 18:11 040 6 gusting 10 18.3
2019-Oct-21 18:05 100 2 gusting 7 18.3
2019-Oct-21 18:01 074 3 gusting 8 18.3
2019-Oct-21 17:55 033 4 gusting 8 18.3
2019-Oct-21 17:50 081 4 gusting 8 18.3
2019-Oct-21 17:47 013 2 gusting 7 18.9
2019-Oct-21 17:16 038 2 gusting 11 17.2
2019-Oct-21 17:10 055 4 gusting 9 17.8
2019-Oct-21 17:05 056 2 gusting 10 17.8
2019-Oct-21 17:01 005 3 gusting 10 17.2
2019-Oct-21 16:55 064 0 gusting 11 17.2
2019-Oct-21 16:50 046 2 gusting 11 17.2
2019-Oct-21 16:46 060 5 gusting 11 16.7
2019-Oct-21 16:40 050 4 gusting 13 17.8
2019-Oct-21 16:35 047 4 gusting 13 17.2
2019-Oct-21 16:31 232 2 gusting 9 17.2
2019-Oct-21 16:25 282 2 gusting 13 17.2
2019-Oct-21 16:20 063 2 gusting 13 17.2
2019-Oct-21 16:16 322 2 gusting 6 17.2
2019-Oct-21 16:10 026 0 gusting 8 17.2
2019-Oct-21 16:05 331 1 gusting 7 17.2
2019-Oct-21 16:01 321 0 gusting 4 17.2
2019-Oct-21 15:55 059 2 gusting 6 17.2
2019-Oct-21 15:50 016 2 gusting 8 16.7
2019-Oct-21 15:45 040 0 gusting 7 16.7
2019-Oct-21 15:40 337 2 gusting 7 16.7
2019-Oct-21 15:35 336 1 gusting 6 16.7
2019-Oct-21 15:31 081 1 gusting 10 16.7
2019-Oct-21 15:25 065 3 gusting 10 16.1
2019-Oct-21 15:20 050 4 gusting 9 16.1
2019-Oct-21 15:16 054 2 gusting 9 16.1
2019-Oct-21 15:10 067 4 gusting 9 16.1
2019-Oct-21 15:05 049 0 gusting 5 16.1
2019-Oct-21 15:01 348 2 gusting 10 16.1
2019-Oct-21 14:55 030 5 gusting 10 15.6
2019-Oct-21 14:50 051 2 gusting 10 15.6
2019-Oct-21 14:46 080 1 gusting 10 15.6
2019-Oct-21 14:40 005 2 gusting 10 16.1
2019-Oct-21 14:35 040 3 gusting 10 15.6
2019-Oct-21 14:30 062 2 gusting 11 15.6
2019-Oct-21 14:25 311 5 gusting 11 15.0
2019-Oct-21 14:20 024 3 gusting 8 15.0
2019-Oct-21 14:15 011 2 gusting 9 15.0
2019-Oct-21 14:10 033 3 gusting 9 15.0
2019-Oct-21 14:05 030 1 gusting 7 15.0
2019-Oct-21 14:00 048 1 gusting 9 15.0
2019-Oct-21 13:55 350 3 gusting 8 14.4
2019-Oct-21 13:50 022 2 gusting 11 14.4
2019-Oct-21 13:45 036 4 gusting 11 14.4
2019-Oct-21 13:40 005 3 gusting 10 14.4
2019-Oct-21 13:35 278 1 gusting 8 14.4
2019-Oct-21 13:25 005 1 gusting 4 13.9
2019-Oct-21 13:20 312 0 gusting 4 13.9
2019-Oct-21 13:15 023 1 gusting 8 13.9
2019-Oct-21 13:10 286 1 gusting 7 13.9
2019-Oct-21 13:00 063 1 gusting 6 13.3
2019-Oct-21 12:55 084 1 gusting 6 12.8
2019-Oct-21 12:50 323 1 gusting 4 12.8
2019-Oct-21 12:45 340 0 gusting 4 12.8
2019-Oct-21 12:40 344 0 gusting 5 12.8
2019-Oct-21 12:35 350 0 gusting 7 12.2
2019-Oct-21 12:30 031 0 gusting 2 12.2
2019-Oct-21 12:25 345 0 gusting 3 12.2
2019-Oct-21 12:20 355 0 gusting 2 12.2
2019-Oct-21 12:15 055 0 gusting 2 11.7
2019-Oct-21 12:10 355 11.7
2019-Oct-21 12:05 328 11.7
2019-Oct-21 12:00 330 11.7
2019-Oct-21 11:55 005 11.1
2019-Oct-21 11:50 307 11.1
2019-Oct-21 11:40 313 10.6
2019-Oct-21 11:35 292 0 gusting 3 10.6
2019-Oct-21 11:30 036 0 gusting 6 10.6
2019-Oct-21 11:21 292 0 gusting 6 10.6
2019-Oct-21 11:17 348 0 gusting 5 10.6
2019-Oct-21 11:10 332 10.6
2019-Oct-21 11:06 349 11.1
2019-Oct-21 11:02 335 0 gusting 4 11.1
2019-Oct-21 10:55 355 0 gusting 2 11.1
2019-Oct-21 10:50 331 0 gusting 2 11.1
2019-Oct-21 10:47 033 0 gusting 2 11.1
2019-Oct-21 10:35 094 0 gusting 5 11.1
2019-Oct-21 10:31 316 11.1
2019-Oct-21 10:25 309 0 gusting 3 11.7
2019-Oct-21 10:20 005 0 gusting 3 11.1
2019-Oct-21 10:19 304 0 gusting 2 11.7
2019-Oct-21 10:10 013 0 gusting 3 11.7
2019-Oct-21 10:05 347 0 gusting 3 11.7
2019-Oct-21 10:01 350 0 gusting 3 11.7
2019-Oct-21 09:55 013 0 gusting 3 11.7
2019-Oct-21 09:51 087 1 gusting 3 11.7
2019-Oct-21 09:47 318 0 gusting 5 11.7
2019-Oct-21 09:40 346 0 gusting 5 11.7
2019-Oct-21 09:35 039 0 gusting 2 11.7
2019-Oct-21 09:31 346 11.7
2019-Oct-21 09:25 009 0 gusting 4 11.7
2019-Oct-21 09:20 037 0 gusting 2 11.7
2019-Oct-21 09:16 035 1 gusting 2 11.7
2019-Oct-21 09:10 327 0 gusting 2 11.7
2019-Oct-21 09:05 025 0 gusting 4 11.7
2019-Oct-21 09:01 343 0 gusting 6 11.7
2019-Oct-21 08:55 344 0 gusting 6 11.7
2019-Oct-21 08:50 351 0 gusting 4 11.7
2019-Oct-21 08:46 360 0 gusting 7 12.2
2019-Oct-21 08:40 005 1 gusting 7 12.2
2019-Oct-21 08:35 360 0 gusting 3 12.2
2019-Oct-21 08:31 038 0 gusting 5 12.2
2019-Oct-21 08:25 084 1 gusting 5 11.7
2019-Oct-21 08:20 042 1 gusting 7 11.7
2019-Oct-21 08:16 013 1 gusting 7 11.7
2019-Oct-21 08:10 338 0 gusting 3 11.7
2019-Oct-21 08:05 344 0 gusting 7 11.7
2019-Oct-21 08:01 336 0 gusting 7 11.7
2019-Oct-21 07:55 012 0 gusting 5 11.7
2019-Oct-21 07:50 005 0 gusting 5 11.7
2019-Oct-21 07:46 036 0 gusting 5 11.7
2019-Oct-21 07:40 028 0 gusting 5 11.7
2019-Oct-21 07:35 015 1 gusting 5 11.7
2019-Oct-21 07:31 331 0 gusting 5 11.7
2019-Oct-21 07:25 065 1 gusting 7 11.7
2019-Oct-21 07:20 279 2 gusting 7 11.7
2019-Oct-21 07:16 019 0 gusting 4 11.7
2019-Oct-21 07:10 046 0 gusting 4 11.7
2019-Oct-21 07:05 355 1 gusting 5 11.7
2019-Oct-21 07:01 325 0 gusting 5 11.7
2019-Oct-21 06:55 336 0 gusting 5 11.7
2019-Oct-21 06:50 030 1 gusting 5 11.7
2019-Oct-21 06:45 090 1 gusting 9 11.7
2019-Oct-21 06:40 061 3 gusting 9 11.7
2019-Oct-21 06:35 033 2 gusting 8 11.7
2019-Oct-21 06:31 360 2 gusting 8 11.7
2019-Oct-21 06:25 047 1 gusting 3 11.7
2019-Oct-21 06:20 345 1 gusting 3 11.7
2019-Oct-21 06:16 323 1 gusting 5 11.7
2019-Oct-21 06:10 005 1 gusting 11 11.7
2019-Oct-21 06:05 005 1 gusting 11 11.7
2019-Oct-21 06:01 047 0 gusting 6 11.7
2019-Oct-21 05:55 350 1 gusting 5 11.7
2019-Oct-21 05:50 040 0 gusting 6 11.7
2019-Oct-21 05:45 338 0 gusting 11 11.7
2019-Oct-21 05:40 057 3 gusting 11 11.7
2019-Oct-21 05:35 022 2 gusting 8 11.7
2019-Oct-21 05:30 032 2 gusting 7 11.7
2019-Oct-21 05:25 037 2 gusting 7 11.7
2019-Oct-21 05:20 017 1 gusting 5 11.7
2019-Oct-21 05:16 051 1 gusting 5 11.7
2019-Oct-21 05:10 061 1 gusting 5 11.7
2019-Oct-21 05:05 036 1 gusting 9 11.7
2019-Oct-21 05:00 052 0 gusting 3 11.7
2019-Oct-21 04:55 036 0 gusting 7 11.7
2019-Oct-21 04:50 049 0 gusting 7 11.7
2019-Oct-21 04:45 338 1 gusting 5 11.7
2019-Oct-21 04:40 049 0 gusting 5 11.7
2019-Oct-21 04:35 029 1 gusting 6 11.7
2019-Oct-21 04:25 360 0 gusting 8 11.7
2019-Oct-21 04:20 051 1 gusting 8 11.7
2019-Oct-21 04:10 051 1 gusting 8 11.7
2019-Oct-21 04:05 051 1 gusting 6 11.7
2019-Oct-21 03:55 051 1 gusting 4 11.7
2019-Oct-21 03:50 059 1 gusting 4 11.7
2019-Oct-21 03:40 061 0 gusting 7 11.7
2019-Oct-21 03:35 067 1 gusting 7 11.7
2019-Oct-21 03:30 051 0 gusting 5 11.7
2019-Oct-21 03:25 024 0 gusting 6 11.7
2019-Oct-21 03:20 039 1 gusting 7 11.7
2019-Oct-21 03:10 030 1 gusting 7 11.7
2019-Oct-21 03:05 034 3 gusting 7 11.1
2019-Oct-21 03:00 065 0 gusting 4 11.1
2019-Oct-21 02:55 050 0 gusting 6 11.1
2019-Oct-21 02:50 053 0 gusting 6 11.1
2019-Oct-21 02:40 040 1 gusting 7 11.1
2019-Oct-21 02:35 067 2 gusting 7 11.1
2019-Oct-21 02:30 037 1 gusting 8 11.1
2019-Oct-21 02:25 020 2 gusting 8 11.1
2019-Oct-21 02:20 038 0 gusting 5 11.1
2019-Oct-21 02:10 011 2 gusting 7 11.1
2019-Oct-21 02:05 035 1 gusting 7 11.1
2019-Oct-21 02:00 035 1 gusting 8 10.6
2019-Oct-21 01:55 040 2 gusting 7 10.6
2019-Oct-21 01:50 009 1 gusting 7 10.6
2019-Oct-21 01:45 336 1 gusting 8 10.6
2019-Oct-21 01:40 360 1 gusting 11 10.6
2019-Oct-21 01:35 030 2 gusting 11 10.6
2019-Oct-21 01:30 018 2 gusting 13 10.6
2019-Oct-21 01:25 009 2 gusting 7 10.6
2019-Oct-21 01:20 005 2 gusting 6 10.6
2019-Oct-21 01:15 040 1 gusting 9 10.6
2019-Oct-21 01:10 017 2 gusting 9 10.6
2019-Oct-21 01:05 063 1 gusting 6 10.6
2019-Oct-21 01:00 015 1 gusting 5 10.6
2019-Oct-21 00:50 051 1 gusting 7 10.6
2019-Oct-21 00:45 029 1 gusting 7 10.6
2019-Oct-21 00:40 047 2 gusting 6 10.6
2019-Oct-21 00:35 038 0 gusting 5 10.6
2019-Oct-21 00:30 021 0 gusting 8 10.6
2019-Oct-21 00:25 028 3 gusting 8 10.6
2019-Oct-21 00:20 355 0 gusting 4 11.1
2019-Oct-21 00:10 055 11.1
2019-Oct-21 00:05 063 0 gusting 8 11.1
2019-Oct-21 00:00 039 0 gusting 4 11.1
2019-Oct-20 23:55 019 0 gusting 5 11.1
2019-Oct-20 23:50 031 1 gusting 5 11.1
2019-Oct-20 23:45 005 0 gusting 4 11.1
2019-Oct-20 23:40 347 11.1
2019-Oct-20 23:35 328 11.1
2019-Oct-20 23:30 067 0 gusting 8 11.1
2019-Oct-20 23:25 076 4 gusting 8 11.1
2019-Oct-20 23:19 052 2 gusting 7 11.1
2019-Oct-20 23:10 054 1 gusting 6 11.1
2019-Oct-20 23:06 026 1 gusting 6 11.1
2019-Oct-20 23:01 298 0 gusting 4 11.1
2019-Oct-20 22:56 040 0 gusting 4 11.1
2019-Oct-20 22:51 023 0 gusting 2 11.1
2019-Oct-20 22:47 326 0 gusting 2 11.1
2019-Oct-20 22:40 053 0 gusting 2 11.1
2019-Oct-20 22:36 058 0 gusting 10 11.1
2019-Oct-20 22:32 023 1 gusting 10 11.1
2019-Oct-20 22:25 040 1 gusting 12 11.1
2019-Oct-20 22:21 011 3 gusting 12 11.7
2019-Oct-20 22:16 024 1 gusting 7 11.7
2019-Oct-20 22:11 030 1 gusting 7 11.7
2019-Oct-20 22:05 030 0 gusting 7 11.7
2019-Oct-20 22:01 061 2 gusting 7 11.7
2019-Oct-20 21:56 053 2 gusting 8 11.7
2019-Oct-20 21:51 063 3 gusting 10 11.7
2019-Oct-20 21:47 051 3 gusting 9 12.2
2019-Oct-20 21:40 062 3 gusting 10 12.2
2019-Oct-20 21:36 037 1 gusting 6 12.2
2019-Oct-20 21:32 047 1 gusting 8 12.2
2019-Oct-20 21:25 067 2 gusting 10 12.2
2019-Oct-20 21:20 069 4 gusting 10 12.8
2019-Oct-20 21:17 056 2 gusting 8 12.8
2019-Oct-20 21:10 063 2 gusting 7 12.8
2019-Oct-20 21:05 039 2 gusting 9 12.8
2019-Oct-20 21:02 078 2 gusting 8 12.8